Flag for Netherlands Weather past 2 weeks in Arnhem, Netherlands

Now
54 °F

Overcast.


Feels Like: 50 °F
Forecast: 47 / 60 °F
Wind: 10 mph from South

Location: Deelen

Current Time: Oct 24, 2014 at 4:56:14 PM

Latest Report: Oct 24, 2014 at 4:25 PM


Visibility: N/A

Pressure: 30.04 "Hg

Humidity: 88%

Dew point: 50 °F

Location of ArnhemLocation

Historic Weather in Arnhem — Graph

°F

Arnhem temperature yesterday

Maximum temperature yesterday: 57 °F (at 1:55 PM)
Minimum temperature yesterday: 43 °F (at 12:25 AM)
Average temperature yesterday: 52 °F

Past Weeks' High & Low Weather Summary

 TemperatureHumidityPressure
High72 °F (Oct 18, 3:55 PM)100% (Oct 11, 12:55 AM)30.18 "Hg (Oct 11, 12:55 AM)
Low43 °F (Oct 23, 12:25 AM)64% (Oct 9, 5:25 PM)29.45 "Hg (Oct 21, 2:25 PM)
Average56 °F89%29.86 "Hg
* Reported Oct 9 3:25 PM — Oct 24 3:55 PM, Arnhem, Weather by CustomWeather, © 2014

Note: Actual official high and low records may vary slightly from our data, if they occured in-between our weather recording intervals... More about our weather records

Advertising

Arnhem weather history for previous 24 hours

 ConditionsComfort  
Time TempWeatherWind HumidityBarometerVisibility
3:55 PM
Oct 24
54 °FMore clouds than sun.12 mph88%30.04 "HgN/A
3:25 PM54 °FDrizzle. Overcast.10 mph88%30.04 "HgN/A
2:55 PM54 °FBroken clouds.13 mph88%30.04 "HgN/A
2:25 PM52 °FCloudy.12 mph94%30.07 "HgN/A
1:55 PM52 °FCloudy.10 mph94%30.07 "HgN/A
1:25 PM52 °FDrizzle. Mostly cloudy.10 mph94%30.09 "Hg6 mi
12:55 PM52 °FDrizzle. Mostly cloudy.9 mph94%30.09 "HgN/A
12:25 PM52 °FLight rain. Mostly cloudy.12 mph88%30.09 "HgN/A
11:55 AM54 °FPartly sunny.12 mph77%30.09 "HgN/A
11:25 AM52 °FPartly sunny.12 mph82%30.09 "HgN/A
10:55 AM52 °FOvercast.12 mph82%30.09 "HgN/A
10:25 AM52 °FPartly sunny.12 mph82%30.09 "HgN/A
9:55 AM52 °FMostly cloudy.12 mph82%30.09 "HgN/A
9:25 AM52 °FMostly cloudy.12 mph82%30.09 "HgN/A
8:55 AM52 °FOvercast.10 mph88%30.09 "HgN/A
8:25 AM52 °FMostly cloudy.10 mph88%30.09 "HgN/A
7:55 AM50 °FOvercast.10 mph94%30.09 "HgN/A
7:25 AM50 °FOvercast.10 mph94%30.09 "HgN/A
6:55 AM52 °FPassing clouds.10 mph82%30.09 "HgN/A
6:25 AM52 °FOvercast.12 mph82%30.09 "HgN/A
5:55 AM52 °FMostly cloudy.10 mph82%30.09 "HgN/A
5:25 AM52 °FMostly cloudy.13 mph88%30.09 "HgN/A
4:55 AM52 °FOvercast.12 mph88%30.12 "HgN/A
4:25 AM52 °FMostly cloudy.12 mph88%30.12 "HgN/A
3:55 AM52 °FMostly cloudy.9 mph88%30.12 "HgN/A
3:25 AM52 °FMostly cloudy.9 mph88%30.12 "HgN/A
2:55 AM52 °FOvercast.9 mph88%30.12 "HgN/A
2:25 AM52 °FOvercast.10 mph88%30.12 "HgN/A
1:55 AM54 °FMostly cloudy.10 mph88%30.12 "HgN/A
1:25 AM54 °FMostly cloudy.10 mph88%30.12 "HgN/A
12:55 AM54 °FOvercast.9 mph88%30.12 "HgN/A
12:25 AM54 °FPassing clouds.9 mph88%30.15 "HgN/A
11:55 PM
Oct 23
54 °FOvercast.12 mph88%30.15 "HgN/A
11:25 PM54 °FOvercast.12 mph88%30.15 "HgN/A
10:55 PM54 °FOvercast.10 mph88%30.15 "HgN/A
10:25 PM54 °FOvercast.12 mph88%30.15 "HgN/A
9:55 PM54 °FFog.12 mph94%30.15 "Hg6 mi
9:25 PM54 °FFog.10 mph94%30.15 "Hg5 mi
8:55 PM54 °FFog.10 mph94%30.15 "Hg6 mi
8:25 PM55 °FOvercast.10 mph82%30.15 "HgN/A
7:55 PM55 °FOvercast.9 mph82%30.15 "HgN/A
7:25 PM55 °FOvercast.8 mph82%30.12 "HgN/A
6:55 PM55 °FOvercast.7 mph82%30.12 "HgN/A
6:25 PM55 °FMostly cloudy.7 mph82%30.12 "HgN/A
5:55 PM55 °FMore clouds than sun.7 mph82%30.12 "HgN/A
5:25 PM55 °FMore clouds than sun.8 mph82%30.15 "HgN/A
4:55 PM55 °FMostly cloudy.9 mph82%30.15 "HgN/A
4:25 PM55 °FMostly cloudy.10 mph82%30.15 "HgN/A
Weather by CustomWeather, © 2014

See weather overviewHow to use our weather pages